CSA434 LKPR-LTBA

Flight info

Callsign CSA434
Flight time N/A
Altitude 35000
Route VOZ4B/30 VOZ DCT LIKSA DCT PEPIK DCT TEGRI DCT NAVOD DCT GASRU L606 ADORU UN739 ATVEP
Aircraft B735/M-SDFHIW/S

Departure

Time N/A
Airport Václav Havel Airport Prague (LKPR)

Arrival

Time 2026-04-30 19:06
Airport İstanbul Atatürk Airport (LTBA)
Time Latitude Longitude Altitude Speed Heading
2026-04-30 17:39 47.89817 18.51453 35326 ft 452 kts 128°
2026-04-30 17:42 47.68400 18.85837 35326 ft 454 kts 129°
2026-04-30 17:43 47.57689 19.02966 35322 ft 455 kts 129°
2026-04-30 17:44 47.44763 19.23598 35322 ft 456 kts 129°
2026-04-30 17:47 47.25365 19.54466 35329 ft 457 kts 130°
2026-04-30 17:48 47.10221 19.78490 35326 ft 458 kts 130°
2026-04-30 17:50 46.92893 20.05889 35331 ft 459 kts 130°
2026-04-30 17:52 46.79847 20.26454 35329 ft 460 kts 131°
2026-04-30 17:54 46.60257 20.57248 35316 ft 461 kts 131°
2026-04-30 17:56 46.43543 20.83434 35308 ft 462 kts 131°
2026-04-30 17:58 46.30406 21.03954 35298 ft 463 kts 131°
2026-04-30 18:00 46.12127 21.30221 35294 ft 464 kts 135°
2026-04-30 18:01 46.00552 21.46491 35288 ft 465 kts 135°
2026-04-30 18:02 45.86677 21.65932 35274 ft 466 kts 135°
2026-04-30 18:04 45.72752 21.85403 35273 ft 466 kts 135°
2026-04-30 18:06 45.54172 22.11297 35287 ft 467 kts 136°
2026-04-30 18:08 45.37876 22.33934 35300 ft 467 kts 136°
2026-04-30 18:10 45.19260 22.59711 35330 ft 469 kts 136°
2026-04-30 18:11 45.02924 22.82264 35346 ft 469 kts 137°
2026-04-30 18:13 44.91217 22.98390 35353 ft 470 kts 137°
2026-04-30 18:14 44.79525 23.14457 35348 ft 472 kts 137°
2026-04-30 18:15 44.65388 23.33844 35347 ft 473 kts 138°
2026-04-30 18:16 44.55945 23.46772 35353 ft 475 kts 138°
2026-04-30 18:17 44.51210 23.53242 35348 ft 475 kts 138°
2026-04-30 18:18 44.44131 23.62897 35344 ft 476 kts 138°
2026-04-30 18:18 44.39390 23.69369 35349 ft 475 kts 138°
2026-04-30 18:19 44.34657 23.75823 35348 ft 475 kts 139°
2026-04-30 18:19 44.29917 23.82274 35349 ft 475 kts 139°
2026-04-30 18:20 44.25183 23.88717 35348 ft 475 kts 139°
2026-04-30 18:20 44.20447 23.95157 35347 ft 475 kts 139°
2026-04-30 18:21 44.15749 24.01540 35347 ft 475 kts 139°
2026-04-30 18:21 44.11011 24.07968 35345 ft 475 kts 139°
2026-04-30 18:22 44.06285 24.14378 35340 ft 475 kts 139°
2026-04-30 18:22 43.99186 24.23999 35338 ft 475 kts 140°
2026-04-30 18:23 43.94461 24.30393 35333 ft 475 kts 140°
2026-04-30 18:23 43.89722 24.36805 35334 ft 475 kts 140°
2026-04-30 18:24 43.82643 24.46363 35338 ft 475 kts 140°
2026-04-30 18:25 43.77901 24.52758 35335 ft 475 kts 140°
2026-04-30 18:25 43.70289 24.61443 35333 ft 470 kts 149°
2026-04-30 18:26 43.62358 24.69387 35331 ft 470 kts 148°
2026-04-30 18:27 43.54544 24.77520 35331 ft 471 kts 149°
2026-04-30 18:28 43.46676 24.85647 35327 ft 471 kts 149°
2026-04-30 18:28 43.38813 24.93758 35328 ft 471 kts 149°
2026-04-30 18:29 43.28319 25.04564 35326 ft 471 kts 149°
2026-04-30 18:30 43.17830 25.15349 35318 ft 471 kts 150°
2026-04-30 18:31 43.09950 25.23436 35313 ft 472 kts 150°
2026-04-30 18:32 43.02090 25.31489 35303 ft 473 kts 150°
2026-04-30 18:33 42.94195 25.39577 35298 ft 473 kts 150°
2026-04-30 18:33 42.86285 25.47668 35292 ft 474 kts 150°
2026-04-30 18:34 42.78406 25.55716 35272 ft 474 kts 151°
2026-04-30 18:35 42.73119 25.61106 35270 ft 474 kts 151°
2026-04-30 18:35 42.67853 25.66473 35273 ft 474 kts 151°
2026-04-30 18:36 42.59926 25.74546 35248 ft 473 kts 151°
2026-04-30 18:37 42.52014 25.82588 35237 ft 474 kts 151°
2026-04-30 18:37 42.46754 25.87935 35231 ft 473 kts 151°
2026-04-30 18:38 42.41470 25.93294 35225 ft 474 kts 152°
2026-04-30 18:38 42.36240 25.98597 35221 ft 473 kts 152°
2026-04-30 18:39 42.30971 26.03940 35218 ft 473 kts 152°
2026-04-30 18:39 42.25704 26.09304 35219 ft 475 kts 150°
2026-04-30 18:40 42.20649 26.15163 35212 ft 482 kts 144°
2026-04-30 18:40 42.15772 26.21402 35203 ft 483 kts 144°
2026-04-30 18:41 42.10834 26.27570 35207 ft 482 kts 145°
2026-04-30 18:41 42.05917 26.33615 35200 ft 482 kts 145°
2026-04-30 18:42 42.00981 26.39697 35196 ft 480 kts 145°
2026-04-30 18:42 41.93546 26.48874 35186 ft 484 kts 144°
2026-04-30 18:45 41.71144 26.78224 32776 ft 447 kts 137°
2026-04-30 18:45 41.69150 26.81351 32538 ft 434 kts 139°
2026-04-30 18:45 41.67170 26.84384 32270 ft 437 kts 139°
2026-04-30 18:46 41.65139 26.87505 31891 ft 453 kts 138°
2026-04-30 18:46 41.63073 26.90752 31720 ft 460 kts 137°
2026-04-30 18:46 41.61001 26.94055 31334 ft 466 kts 137°
2026-04-30 18:46 41.58927 26.97379 31103 ft 462 kts 136°
2026-04-30 18:47 41.56865 27.00681 30801 ft 464 kts 137°
2026-04-30 18:47 41.54784 27.03985 30418 ft 464 kts 137°
2026-04-30 18:47 41.52722 27.07257 30245 ft 462 kts 137°
2026-04-30 18:47 41.50660 27.10518 29841 ft 466 kts 137°
2026-04-30 18:48 41.48580 27.13808 29369 ft 460 kts 136°
2026-04-30 18:48 41.46560 27.17022 29153 ft 444 kts 136°
2026-04-30 18:48 41.44599 27.20144 28751 ft 434 kts 137°
2026-04-30 18:48 41.42670 27.23196 28210 ft 429 kts 137°
2026-04-30 18:49 41.40752 27.26223 27679 ft 423 kts 137°
2026-04-30 18:49 41.38870 27.29191 27177 ft 417 kts 136°
2026-04-30 18:49 41.37015 27.32123 26691 ft 414 kts 136°
2026-04-30 18:49 41.35155 27.35060 26151 ft 413 kts 136°
2026-04-30 18:50 41.33300 27.37987 25558 ft 411 kts 136°
2026-04-30 18:50 41.31464 27.40889 24939 ft 410 kts 136°
2026-04-30 18:50 41.29633 27.43782 24386 ft 407 kts 136°
2026-04-30 18:50 41.27788 27.46692 23898 ft 417 kts 135°
2026-04-30 18:51 41.25903 27.49659 23268 ft 422 kts 135°
2026-04-30 18:51 41.24020 27.52637 22594 ft 419 kts 135°
2026-04-30 18:51 41.22158 27.55586 21895 ft 415 kts 135°
2026-04-30 18:51 41.20301 27.58521 21122 ft 413 kts 135°
2026-04-30 18:52 41.18457 27.61428 20370 ft 410 kts 135°
2026-04-30 18:52 41.16618 27.64327 19638 ft 408 kts 135°
2026-04-30 18:52 41.14816 27.67166 18935 ft 406 kts 135°
2026-04-30 18:52 41.12985 27.70049 18201 ft 403 kts 135°
2026-04-30 18:53 41.11185 27.72886 17405 ft 400 kts 135°
2026-04-30 18:53 41.09401 27.75699 16629 ft 397 kts 135°
2026-04-30 18:53 41.07661 27.78440 15884 ft 393 kts 135°
2026-04-30 18:53 41.05904 27.81205 15142 ft 389 kts 135°
2026-04-30 18:54 41.04174 27.83925 14421 ft 384 kts 135°
2026-04-30 18:54 41.02461 27.86616 13683 ft 379 kts 135°
2026-04-30 18:54 41.00766 27.89282 12881 ft 375 kts 134°
2026-04-30 18:54 40.99094 27.91914 12112 ft 371 kts 134°
2026-04-30 18:55 40.97435 27.94524 11351 ft 367 kts 134°
2026-04-30 18:55 40.94177 27.99641 9881 ft 360 kts 134°
2026-04-30 18:55 40.92571 28.02162 9094 ft 357 kts 134°
2026-04-30 18:56 40.89447 28.07070 7711 ft 339 kts 133°
2026-04-30 18:56 40.87972 28.09394 7295 ft 321 kts 133°
2026-04-30 18:56 40.86569 28.11604 6956 ft 305 kts 133°
2026-04-30 18:57 40.83981 28.15658 6364 ft 278 kts 134°
2026-04-30 18:57 40.82741 28.17586 5885 ft 273 kts 133°
2026-04-30 18:57 40.81518 28.19471 5459 ft 266 kts 132°
2026-04-30 18:58 40.79220 28.23261 5022 ft 266 kts 122°
2026-04-30 18:58 40.78602 28.25505 4963 ft 259 kts 94°
2026-04-30 18:58 40.78794 28.27877 5023 ft 268 kts 75°
2026-04-30 18:59 40.79282 28.31926 4973 ft 260 kts 79°
2026-04-30 19:00 40.81102 28.37817 4996 ft 266 kts 71°
2026-04-30 19:00 40.81630 28.40114 4968 ft 259 kts 73°
2026-04-30 19:00 40.82662 28.44737 5000 ft 263 kts 72°
2026-04-30 19:01 40.83720 28.49377 4988 ft 262 kts 73°
2026-04-30 19:01 40.84240 28.51679 4986 ft 262 kts 73°
2026-04-30 19:02 40.85284 28.56325 4490 ft 263 kts 70°
2026-04-30 19:02 40.87003 28.60476 3780 ft 253 kts 55°
2026-04-30 19:03 40.88881 28.64305 3102 ft 243 kts 58°
2026-04-30 19:03 40.90566 28.68071 2451 ft 234 kts 57°
2026-04-30 19:04 40.92252 28.71656 1834 ft 225 kts 57°
2026-04-30 19:04 40.93812 28.75066 1246 ft 210 kts 56°
2026-04-30 19:05 40.95542 28.78219 767 ft 220 kts 52°
2026-04-30 19:05 40.96844 28.81594 132 ft 185 kts 56°
2026-04-30 19:06 40.97740 28.83493 103 ft 46 kts 64°
2026-04-30 19:06 40.97865 28.83606 102 ft 8 kts 332°
2026-04-30 19:06 40.97870 28.83600 103 ft 0 kts 304°
2026-04-30 19:07 40.97877 28.83512 107 ft 5 kts 277°
2026-04-30 19:07 40.97879 28.83464 108 ft 7 kts 271°
2026-04-30 19:08 40.97845 28.83361 111 ft 6 kts 235°
2026-04-30 19:08 40.97802 28.83260 115 ft 7 kts 244°
2026-04-30 19:08 40.97782 28.83200 115 ft 8 kts 247°
2026-04-30 19:09 40.97749 28.83078 112 ft 6 kts 277°
2026-04-30 19:09 40.97746 28.83059 111 ft 0 kts 250°
2026-04-30 19:09 40.97741 28.83045 118 ft 11 kts 236°
2026-04-30 19:10 40.97696 28.82823 117 ft 2 kts 256°